DMSP 5D-2 F13 DEB, 40411

Orbit data source: Space-Track

DMSP 5D-2 F13 DEB, 40411 is space debris in SSO originally from a launch on Fri, 24 Mar 1995 UTC launched from the Air Force Western Test Range (AFWTR). Debris objects in space refer to the collection of defunct objects orbiting the Earth. Examples of debris include non-operational satellites, rocket bodies, and fragments generated from explosions, collisions, or faulty payload assembly.

Loading next visibility...
Identifier
40411, 1995-015Y
Orbit
SSO
Country
Flag of USUS
Related business
Manufacturer
Unknown
Mission
Spacecraft
Bus & Motor
Unknown
Mass
Unknown
Launch date (UTC)
1995-03-24 (31 years ago)
Launch vehicle
Unknown
Launch site
Air Force Western Test Range (AFWTR)
Object type
Payload
Rocket body
Debris
Shape & HBR
Unknown shape, 0.1 m
Radar Cross Section
Small (<0.1 m²)

Expand to show TLE details & history
Last TLE update: 2 days ago

TLE from 2 days ago
0 DMSP 5D-2 F13 DEB
1 40411U 95015Y   26171.27633914  .00000615  00000-0  33149-3 0  9997
2 40411  98.8966 188.8556 0024927  14.2251 345.9619 14.16364459583419
Epoch: 2026-06-20T06:37Z
TLE epoch observation values (Epoch: 2026-06-20T06:37:55.701Z)
Latitude
-0.00009°
Longitude
-179.11976°
Altitude
823.127 km
Speed
7.451 km/s
True Right ascension
12h 35m 25s
True Declination
0° 00' 00"
Sunlit
Object was in daylight at epoch
Visualization orbit readout
Latitude
Unknown
Longitude
Unknown
Altitude
Unknown
Speed
Unknown
Apparent Right ascension
Unknown
Apparent Declination
Unknown
Sunlit
N/A
Visualization observer readout
Local Sidereal Time
15:02:49
Azimuth
Unknown
Elevation
Unknown
Doppler factor
Unknown
Orbital elements
Apogee altitude
852.826 km
Perigee altitude
816.867 km
Semi-major axis
7,212.984 km
Eccentricity
0.00249
Inclination
98.8966°
RAAN
188.8556°
Arg. of periapsis
14.2251°
True anomaly
345.8924°
Mean anomaly
345.9619°
Eccentric anomaly
345.92717°
Mean motion
3.543 °/min
Orbital period
101.61 mins
BSTAR
0.00033149
Loading maneuver chart data...
Computing Atmospheric mass density...

Documentation

Showing up to 5 results
|